Regional Weather Roundup
Issued by NWS Goodland, KS

Home | Current Version | Previous Version | Graphics & Text | Print | Product List | Glossary On
Versions: 1 2 3 4 5 6 7 8 9 10 11 12 13 14 15 16 17 18 19 20 21 22 23 24 25 26 27 28 29 30 31 32 33 34 35 36 37 38 39 40 41 42 43 44 45 46 47 48 49 50
000
ASUS43 KGLD 070708
RWRGLD

GOODLAND FORECAST AREA HOURLY WEATHER ROUNDUP
NATIONAL WEATHER SERVICE GOODLAND KS
1200 AM MST SUN FEB 07 2016

...OFFICIAL OBSERVATIONS...

CITY           SKY/WX    TMP DP  RH WIND       PRES   REMARKS
GOODLAND KS    CLOUDY    30  24  78 N6        30.12R
HILL CITY KS   CLOUDY    39  27  62 NW17G28   30.08R
IMPERIAL NEB   CLOUDY    34  24  67 NW10      30.11S
MCCOOK NEB     CLOUDY    32  25  75 W7        30.10R
AKRON CO       CLOUDY    31  21  66 N15       30.10S
BURLINGTON CO  CLOUDY    35  23  61 NW10      30.13R
LIMON CO       CLOUDY    30  19  63 W17       30.10S WCI  18
$$

...UNOFFICIAL OBSERVATIONS...

CITY           SKY/WX    TMP DP  RH WIND       PRES   REMARKS
COLBY KS       CLEAR     34  28  80 NW10      30.13R
GOVE KS          N/A     37  32  82 MISG        N/A
LENORA KS        N/A     38  32  79 MISG        N/A
NORTON KS      CLEAR     37  25  60 NW14      30.08
SHARON SPRINGS   N/A     37  27  68 N10         N/A
TRENTON NEB      N/A     34  32  92 MISG        N/A
KIT CARSON CO    N/A     26  21  80 MISG        N/A
YUMA CO          N/A     34  26  72 NE7         N/A
$$



USA.gov is the U.S. government's official web portal to all federal, state and local government web resources and services.